Flag for Germany Weather past 2 weeks in Geldern, North Rhine-Westphalia, Germany

Now
54 °F

Sunny.


Feels Like: 52 °F
Forecast: 50 / 61 °F
Wind: 6 mph from Southeast

Location: Niederrhein

Current Time: May 6, 2015 at 12:26:29 AM

Latest Report: May 5, 2015 at 10:50 PM


Visibility: 10 mi

Pressure: 29.77 "Hg

Humidity: 63%

Dew point: 41 °F

Location of GeldernLocation

Historic Weather in Geldern — Graph

°F

Geldern temperature yesterday

Maximum temperature yesterday: 75 °F (at 12:50 PM)
Minimum temperature yesterday: 54 °F (at 9:50 PM)
Average temperature yesterday: 64 °F

Past Weeks' High & Low Weather Summary

 TemperatureHumidityPressure
High75 °F (May 5, 12:50 PM)100% (Apr 21, 6:20 AM)30.48 "Hg (Apr 21, 6:20 AM)
Low30 °F (Apr 28, 5:50 AM)29% (Apr 24, 3:50 PM)29.39 "Hg (May 5, 4:50 AM)
Average54 °F66%29.91 "Hg
* Reported Apr 20 10:20 PM — May 5 10:50 PM, Geldern, Weather by CustomWeather, © 2015

Note: Actual official high and low records may vary slightly from our data, if they occured in-between our weather recording intervals... More about our weather records

Advertising

Geldern weather history for previous 24 hours

 ConditionsComfort  
Time TempWeatherWind HumidityBarometerVisibility
10:50 PM
Tue, May 5
54 °FSunny.6 mph63%29.77 "Hg10 mi
10:20 PM54 °FPassing clouds.6 mph67%29.77 "HgN/A
9:50 PM54 °FSunny.5 mph58%29.77 "Hg10 mi
9:20 PM55 °FSunny.3 mph55%29.77 "Hg10 mi
8:50 PM57 °FSunny.7 mph48%29.74 "Hg10 mi
8:20 PM59 °FSunny.14 mph42%29.74 "Hg10 mi
7:50 PM61 °FSunny.16 mph39%29.74 "Hg10 mi
7:20 PM61 °FSunny.20 mph42%29.71 "Hg10 mi
6:50 PM63 °FPassing clouds.17 mph42%29.71 "HgN/A
6:20 PM63 °FPassing clouds.21 mph42%29.68 "HgN/A
5:50 PM63 °FSunny.25 mph42%29.68 "Hg10 mi
5:20 PM63 °FPassing clouds.28 mph45%29.65 "HgN/A
4:50 PM64 °FPassing clouds.30 mph52%29.65 "HgN/A
4:20 PM61 °FScattered clouds.23 mph72%29.62 "HgN/A
3:50 PM59 °FSprinkles. Scattered clouds.24 mph77%29.59 "Hg6 mi
3:20 PM61 °FSprinkles. Scattered clouds.28 mph77%29.56 "Hg5 mi
2:50 PM64 °FRain showers. Scattered clouds.21 mph78%29.50 "Hg4 mi
2:20 PM68 °FScattered showers. Scattered clouds.29 mph64%29.47 "HgN/A
1:50 PM72 °FScattered showers. Scattered clouds.25 mph53%29.45 "HgN/A
1:20 PM75 °FScattered clouds.20 mph50%29.42 "HgN/A
12:50 PM75 °FScattered clouds.16 mph54%29.42 "HgN/A
12:20 PM73 °FScattered clouds.20 mph57%29.42 "HgN/A
11:50 AM72 °FScattered clouds.17 mph61%29.42 "HgN/A
11:20 AM73 °FPassing clouds.16 mph61%29.42 "HgN/A
10:50 AM72 °FPassing clouds.12 mph65%29.42 "HgN/A
10:20 AM68 °FSunny.10 mph73%29.42 "Hg10 mi
9:50 AM68 °FPassing clouds.12 mph69%29.42 "HgN/A
9:20 AM66 °FPassing clouds.15 mph78%29.42 "HgN/A
8:50 AM68 °FSunny.14 mph73%29.42 "Hg10 mi
8:20 AM66 °FSunny.14 mph78%29.39 "Hg10 mi
7:50 AM66 °FClear.13 mph78%29.42 "Hg10 mi
7:20 AM64 °FPassing clouds.12 mph83%29.39 "HgN/A
6:50 AM64 °FPassing clouds.12 mph83%29.42 "HgN/A
6:20 AM63 °FPassing clouds.9 mph83%29.39 "HgN/A
5:50 AM63 °FClear.9 mph83%29.39 "Hg10 mi
5:20 AM61 °FClear.10 mph88%29.39 "Hg10 mi
4:50 AM61 °FClear.10 mph88%29.39 "Hg10 mi
Weather by CustomWeather, © 2015

See weather overviewHow to use our weather pages